| time (UTC) | temp C | wind direction | speed KPH | gust KPH | rain 1hr cm | rain 24hr cm | rain mn cm | humidity % | barometer mb |
| 20260503034552 | 12 | 0.0 | 0.0 | 0.00 | 0.00 | 0.00 | 1 | 1016.0 | |
| 20260503033612 | 12 | 0.0 | 0.0 | 0.00 | 0.00 | 0.00 | 1 | 1015.9 | |
| 20260503032552 | 12 | 0.0 | 0.0 | 0.00 | 0.00 | 0.00 | 1 | 1015.9 | |
| 20260503031621 | 12 | 0.0 | 0.0 | 0.00 | 0.00 | 0.00 | 1 | 1016.0 | |
| 20260503030521 | 12 | 0.0 | 0.0 | 0.00 | 0.00 | 0.00 | 1 | 1016.2 | |
| 20260503025553 | 12 | 0.0 | 0.0 | 0.00 | 0.00 | 0.00 | 1 | 1016.2 | |
| 20260503024521 | 12 | 0.0 | 0.0 | 0.00 | 0.00 | 0.00 | 1 | 1016.3 | |
| 20260503023621 | 12 | 0.0 | 0.0 | 0.00 | 0.00 | 0.00 | 1 | 1016.3 | |
| 20260503022551 | 12 | 0.0 | 0.0 | 0.00 | 0.00 | 0.00 | 1 | 1016.3 | |
| 20260503021521 | 13 | 0.0 | 0.0 | 0.00 | 0.00 | 0.00 | 1 | 1016.4 | |
| 20260503020621 | 13 | 0.0 | 0.0 | 0.00 | 0.00 | 0.00 | 1 | 1016.6 | |
| 20260503015521 | 13 | 0.0 | 0.0 | 0.00 | 0.00 | 0.00 | 1 | 1016.6 | |
| 20260503014520 | 13 | 0.0 | 0.0 | 0.00 | 0.00 | 0.00 | 1 | 1016.7 | |
| 20260503013621 | 13 | 0.0 | 0.0 | 0.00 | 0.00 | 0.00 | 1 | 1016.9 | |
| 20260503012612 | 13 | 0.0 | 0.0 | 0.00 | 0.00 | 0.00 | 1 | 1016.9 | |
| 20260503011551 | 13 | 0.0 | 0.0 | 0.00 | 0.00 | 0.00 | 1 | 1016.8 | |
| 20260503010522 | 13 | 0.0 | 0.0 | 0.00 | 0.00 | 0.00 | 1 | 1016.8 | |
| 20260503005520 | 13 | 0.0 | 0.0 | 0.00 | 0.00 | 0.00 | 2 | 1017.0 | |
| 20260503004620 | 13 | 0.0 | 0.0 | 0.00 | 0.00 | 0.00 | 7 | 1017.1 | |
| 20260503003552 | 13 | 0.0 | 0.0 | 0.00 | 0.00 | 0.00 | 10 | 1017.1 | |
| 20260503002542 | 13 | 0.0 | 0.0 | 0.00 | 0.00 | 0.00 | 11 | 1017.3 | |
| 20260503001550 | 14 | 0.0 | 0.0 | 0.00 | 0.00 | 0.00 | 14 | 1017.5 | |
| 20260503000520 | 14 | 0.0 | 0.0 | 0.00 | 0.00 | 0.00 | 16 | 1017.6 | |
| 20260502235550 | 14 | 0.0 | 0.0 | 0.00 | 0.00 | 0.00 | 17 | 1017.8 | |
| 20260502234609 | 15 | 0.0 | 0.0 | 0.00 | 0.00 | 0.00 | 18 | 1017.8 | |
| 20260502233549 | 15 | 0.0 | 0.0 | 0.00 | 0.00 | 0.00 | 23 | 1017.8 | |
| 20260502232521 | 15 | 0.0 | 0.0 | 0.00 | 0.00 | 0.00 | 27 | 1017.9 | |
| 20260502231549 | 15 | 0.0 | 0.0 | 0.00 | 0.00 | 0.00 | 28 | 1018.0 | |
| 20260502230621 | 15 | 0.0 | 0.0 | 0.00 | 0.00 | 0.00 | 26 | 1017.8 | |
| 20260502225549 | 15 | 0.0 | 0.0 | 0.00 | 0.00 | 0.00 | 24 | 1017.9 | |
| 20260502224619 | 15 | 0.0 | 0.0 | 0.00 | 0.00 | 0.00 | 24 | 1017.9 | |
| 20260502223619 | 15 | 0.0 | 0.0 | 0.00 | 0.00 | 0.00 | 23 | 1017.9 | |
| 20260502222659 | 15 | 0.0 | 0.0 | 0.00 | 0.00 | 0.00 | 22 | 1017.9 | |
| 20260502221549 | 15 | 0.0 | 0.0 | 0.00 | 0.00 | 0.00 | 24 | 1017.9 | |
| 20260502220519 | 15 | 0.0 | 0.0 | 0.00 | 0.00 | 0.00 | 28 | 1017.9 | |
| 20260502215548 | 15 | 0.0 | 0.0 | 0.00 | 0.00 | 0.00 | 33 | 1018.0 | |
| 20260502214550 | 16 | 0.0 | 0.0 | 0.00 | 0.00 | 0.00 | 38 | 1018.0 | |
| 20260502213548 | 16 | 0.0 | 0.0 | 0.00 | 0.00 | 0.00 | 40 | 1018.1 | |
| 20260502212549 | 16 | 0.0 | 0.0 | 0.00 | 0.00 | 0.00 | 41 | 1018.1 | |
| 20260502211548 | 16 | 0.0 | 0.0 | 0.00 | 0.00 | 0.00 | 44 | 1018.0 | |
| 20260502210548 | 17 | 0.0 | 0.0 | 0.00 | 0.00 | 0.00 | 49 | 1018.1 | |
| 20260502205518 | 17 | 0.0 | 0.0 | 0.00 | 0.00 | 0.00 | 55 | 1018.9 | |
| 20260502204518 | 18 | 0.0 | 0.0 | 0.00 | 0.00 | 0.00 | 57 | 1019.1 | |
| 20260502203538 | 18 | 0.0 | 0.0 | 0.00 | 0.00 | 0.00 | 56 | 1018.5 | |
| 20260502202618 | 18 | 0.0 | 0.0 | 0.00 | 0.00 | 0.00 | 55 | 1018.4 | |
| 20260502201518 | 18 | 0.0 | 0.0 | 0.00 | 0.00 | 0.00 | 58 | 1018.1 | |
| 20260502200548 | 19 | 0.0 | 0.0 | 0.00 | 0.00 | 0.00 | 60 | 1018.0 | |
| 20260502195658 | 19 | 0.0 | 0.0 | 0.00 | 0.00 | 0.00 | 60 | 1018.0 | |
| 20260502194618 | 19 | 0.0 | 0.0 | 0.00 | 0.00 | 0.00 | 60 | 1017.9 | |
| 20260502193549 | 20 | 0.0 | 0.0 | 0.00 | 0.00 | 0.00 | 60 | 1018.1 | |
| 20260502192547 | 20 | 0.0 | 0.0 | 0.00 | 0.00 | 0.00 | 60 | 1018.2 | |
| 20260502191517 | 20 | 0.0 | 0.0 | 0.00 | 0.00 | 0.00 | 59 | 1018.0 | |
| 20260502190547 | 20 | 0.0 | 0.0 | 0.00 | 0.00 | 0.00 | 58 | 1018.0 | |
| 20260502185547 | 20 | 0.0 | 0.0 | 0.00 | 0.00 | 0.00 | 57 | 1017.9 | |
| 20260502184619 | 21 | 0.0 | 0.0 | 0.00 | 0.00 | 0.00 | 56 | 1018.0 | |
| 20260502183519 | 21 | 0.0 | 0.0 | 0.00 | 0.00 | 0.00 | 56 | 1018.0 | |
| 20260502182547 | 21 | 0.0 | 0.0 | 0.00 | 0.00 | 0.00 | 55 | 1018.0 | |
| 20260502181618 | 22 | 0.0 | 0.0 | 0.00 | 0.00 | 0.00 | 55 | 1018.2 | |
| 20260502180637 | 22 | 0.0 | 0.0 | 0.00 | 0.00 | 0.00 | 54 | 1018.1 | |
| 20260502163547 | 23 | 0.0 | 0.0 | 0.00 | 0.00 | 0.00 | 52 | 1018.8 | |
| 20260502162626 | 23 | 0.0 | 0.0 | 0.00 | 0.00 | 0.00 | 53 | 1019.0 | |
| 20260502161617 | 23 | 0.0 | 0.0 | 0.00 | 0.00 | 0.00 | 53 | 1019.1 | |
| 20260502160616 | 23 | 0.0 | 0.0 | 0.00 | 0.00 | 0.00 | 52 | 1019.1 | |
| 20260502151637 | 24 | 0.0 | 0.0 | 0.00 | 0.00 | 0.00 | 52 | 1019.8 | |
| 20260502150546 | 25 | 0.0 | 0.0 | 0.00 | 0.00 | 0.00 | 52 | 1020.0 | |
| 20260502130544 | 24 | 0.0 | 0.0 | 0.00 | 0.00 | 0.00 | 55 | 1021.7 | |
| 20260502123544 | 23 | 0.0 | 0.0 | 0.00 | 0.00 | 0.00 | 56 | 1021.9 | |
| 20260502122614 | 23 | 0.0 | 0.0 | 0.00 | 0.00 | 0.00 | 56 | 1022.2 | |
| 20260502121544 | 23 | 0.0 | 0.0 | 0.00 | 0.00 | 0.00 | 56 | 1022.2 | |
| 20260502120614 | 23 | 0.0 | 0.0 | 0.00 | 0.00 | 0.00 | 57 | 1022.3 | |
| 20260502115614 | 23 | 0.0 | 0.0 | 0.00 | 0.00 | 0.00 | 57 | 1022.5 | |
| 20260502114615 | 23 | 0.0 | 0.0 | 0.00 | 0.00 | 0.00 | 58 | 1022.6 | |
| 20260502113544 | 22 | 0.0 | 0.0 | 0.00 | 0.00 | 0.00 | 58 | 1022.7 | |
| 20260502112605 | 22 | 0.0 | 0.0 | 0.00 | 0.00 | 0.00 | 57 | 1022.8 | |
| 20260502111545 | 22 | 0.0 | 0.0 | 0.00 | 0.00 | 0.00 | 57 | 1022.8 | |
| 20260502110545 | 22 | 0.0 | 0.0 | 0.00 | 0.00 | 0.00 | 57 | 1023.0 | |
| 20260502105604 | 22 | 0.0 | 0.0 | 0.00 | 0.00 | 0.00 | 58 | 1023.0 | |
| 20260502104613 | 22 | 0.0 | 0.0 | 0.00 | 0.00 | 0.00 | 57 | 1023.0 | |
| 20260502103603 | 22 | 0.0 | 0.0 | 0.00 | 0.00 | 0.00 | 58 | 1023.0 | |
| 20260502102543 | 21 | 0.0 | 0.0 | 0.00 | 0.00 | 0.00 | 59 | 1023.3 | |
| 20260502101545 | 22 | 0.0 | 0.0 | 0.00 | 0.00 | 0.00 | 59 | 1023.3 | |
| 20260502100613 | 21 | 0.0 | 0.0 | 0.00 | 0.00 | 0.00 | 59 | 1023.4 | |
| 20260502090602 | 20 | 0.0 | 0.0 | 0.00 | 0.00 | 0.00 | 59 | 1023.7 | |
| 20260502070641 | 16 | 0.0 | 0.0 | 0.00 | 0.00 | 0.00 | 60 | 1024.1 | |
| 20260502065613 | 16 | 0.0 | 0.0 | 0.00 | 0.00 | 0.00 | 60 | 1024.2 | |
| 20260502064541 | 16 | 0.0 | 0.0 | 0.00 | 0.00 | 0.00 | 60 | 1024.2 | |
| 20260502063541 | 15 | 0.0 | 0.0 | 0.00 | 0.00 | 0.00 | 61 | 1024.2 | |
| 20260502062541 | 15 | 0.0 | 0.0 | 0.00 | 0.00 | 0.00 | 61 | 1024.2 | |
| 20260502061541 | 15 | 0.0 | 0.0 | 0.00 | 0.00 | 0.00 | 60 | 1024.2 | |
| 20260502060542 | 13 | 0.0 | 0.0 | 0.00 | 0.00 | 0.00 | 60 | 1024.2 | |
| 20260502055541 | 13 | 0.0 | 0.0 | 0.00 | 0.00 | 0.00 | 61 | 1024.0 | |
| 20260502054611 | 13 | 0.0 | 0.0 | 0.00 | 0.00 | 0.00 | 61 | 1023.9 | |
| 20260502053541 | 13 | 0.0 | 0.0 | 0.00 | 0.00 | 0.00 | 61 | 1023.9 | |
| 20260502052541 | 13 | 0.0 | 0.0 | 0.00 | 0.00 | 0.00 | 61 | 1023.8 | |
| 20260502051603 | 12 | 0.0 | 0.0 | 0.00 | 0.00 | 0.00 | 62 | 1023.9 | |
| 20260502050541 | 12 | 0.0 | 0.0 | 0.00 | 0.00 | 0.00 | 62 | 1023.8 | |
| 20260502045541 | 12 | 0.0 | 0.0 | 0.00 | 0.00 | 0.00 | 62 | 1023.8 | |
| 20260502044540 | 12 | 0.0 | 0.0 | 0.00 | 0.00 | 0.00 | 61 | 1023.8 | |
| 20260502043540 | 11 | 0.0 | 0.0 | 0.00 | 0.00 | 0.00 | 61 | 1023.7 | |
| 20260502042640 | 11 | 0.0 | 0.0 | 0.00 | 0.00 | 0.00 | 61 | 1023.8 | |
| 20260502041540 | 11 | 0.0 | 0.0 | 0.00 | 0.00 | 0.00 | 60 | 1023.8 | |
| 20260502040540 | 11 | 0.0 | 0.0 | 0.00 | 0.00 | 0.00 | 60 | 1023.9 | |
| 20260502035540 | 11 | 0.0 | 0.0 | 0.00 | 0.00 | 0.00 | 61 | 1024.0 |